Time,TemperatureF,DewpointF,PressureIn,WindDirection,WindDirectionDegrees,WindSpeedMPH,WindSpeedGustMPH,Humidity,HourlyPrecipIn,Conditions,Clouds,dailyrainin,SoftwareType,DateUTC
2013-01-30 00:00:00,15.0,13.0,-100.00,WNW,290,18.0,35.0,93,-99.99,,,-99.99,,2013-01-30 07:00:00,
2013-01-30 00:32:00,15.0,13.0,-100.00,WNW,290,18.0,35.0,93,-99.99,,,-99.99,,2013-01-30 07:32:00,
2013-01-30 00:42:00,15.0,13.0,-100.00,WNW,290,18.0,35.0,93,-99.99,,,-99.99,,2013-01-30 07:42:00,
2013-01-30 00:52:00,15.0,13.0,-100.00,WNW,290,18.0,35.0,93,-99.99,,,-99.99,,2013-01-30 07:52:00,
2013-01-30 01:00:00,15.0,14.0,-100.00,WNW,292,23.0,38.0,97,-99.99,,,-99.99,,2013-01-30 08:00:00,
2013-01-30 01:32:00,15.0,14.0,-100.00,WNW,292,23.0,38.0,97,-99.99,,,-99.99,,2013-01-30 08:32:00,
2013-01-30 01:42:00,15.0,14.0,-100.00,WNW,292,23.0,38.0,97,-99.99,,,-99.99,,2013-01-30 08:42:00,
2013-01-30 01:52:00,15.0,14.0,-100.00,WNW,292,23.0,38.0,97,-99.99,,,-99.99,,2013-01-30 08:52:00,
2013-01-30 02:00:00,14.0,14.0,-100.00,WNW,296,22.0,42.0,97,-99.99,,,-99.99,,2013-01-30 09:00:00,
2013-01-30 02:32:00,14.0,14.0,-100.00,WNW,296,22.0,42.0,97,-99.99,,,-99.99,,2013-01-30 09:32:00,
2013-01-30 02:42:00,14.0,14.0,-100.00,WNW,296,22.0,42.0,97,-99.99,,,-99.99,,2013-01-30 09:42:00,
2013-01-30 02:52:00,14.0,14.0,-100.00,WNW,296,22.0,42.0,97,-99.99,,,-99.99,,2013-01-30 09:52:00,
2013-01-30 03:00:00,15.0,14.0,-100.00,WNW,301,24.0,44.0,97,-99.99,,,-99.99,,2013-01-30 10:00:00,
2013-01-30 03:32:00,15.0,14.0,-100.00,WNW,301,24.0,44.0,97,-99.99,,,-99.99,,2013-01-30 10:32:00,
2013-01-30 03:42:00,15.0,14.0,-100.00,WNW,301,24.0,44.0,97,-99.99,,,-99.99,,2013-01-30 10:42:00,
2013-01-30 03:52:00,15.0,14.0,-100.00,WNW,301,24.0,44.0,97,-99.99,,,-99.99,,2013-01-30 10:52:00,
2013-01-30 04:00:00,15.0,15.0,-100.00,WNW,295,21.0,38.0,96,-99.99,,,-99.99,,2013-01-30 11:00:00,
2013-01-30 04:33:00,15.0,15.0,-100.00,WNW,295,21.0,38.0,96,-99.99,,,-99.99,,2013-01-30 11:33:00,
2013-01-30 04:42:00,15.0,15.0,-100.00,WNW,295,21.0,38.0,96,-99.99,,,-99.99,,2013-01-30 11:42:00,
2013-01-30 04:52:00,15.0,15.0,-100.00,WNW,295,21.0,38.0,96,-99.99,,,-99.99,,2013-01-30 11:52:00,
2013-01-30 05:00:00,17.0,15.0,-100.00,West,278,16.0,34.0,92,-99.99,,,-99.99,,2013-01-30 12:00:00,
2013-01-30 05:33:00,17.0,15.0,-100.00,West,278,16.0,34.0,92,-99.99,,,-99.99,,2013-01-30 12:33:00,
2013-01-30 05:43:00,17.0,15.0,-100.00,West,278,16.0,34.0,92,-99.99,,,-99.99,,2013-01-30 12:43:00,
2013-01-30 06:00:00,19.0,17.0,-100.00,WNW,289,17.0,33.0,92,-99.99,,,-99.99,,2013-01-30 13:00:00,
2013-01-30 06:33:00,19.0,17.0,-100.00,WNW,289,17.0,33.0,92,-99.99,,,-99.99,,2013-01-30 13:33:00,
2013-01-30 06:43:00,19.0,17.0,-100.00,WNW,289,17.0,33.0,92,-99.99,,,-99.99,,2013-01-30 13:43:00,
2013-01-30 06:53:00,19.0,17.0,-100.00,WNW,289,17.0,33.0,92,-99.99,,,-99.99,,2013-01-30 13:53:00,
2013-01-30 07:00:00,20.0,19.0,-100.00,WNW,292,16.0,29.0,94,-99.99,,,-99.99,,2013-01-30 14:00:00,
2013-01-30 07:33:00,20.0,19.0,-100.00,WNW,292,16.0,29.0,94,-99.99,,,-99.99,,2013-01-30 14:33:00,
2013-01-30 07:43:00,20.0,19.0,-100.00,WNW,292,16.0,29.0,94,-99.99,,,-99.99,,2013-01-30 14:43:00,
2013-01-30 07:53:00,20.0,19.0,-100.00,WNW,292,16.0,29.0,94,-99.99,,,-99.99,,2013-01-30 14:53:00,
2013-01-30 08:00:00,21.0,19.0,-100.00,WNW,294,12.0,25.0,94,-99.99,,,-99.99,,2013-01-30 15:00:00,
2013-01-30 08:33:00,21.0,19.0,-100.00,WNW,294,12.0,25.0,94,-99.99,,,-99.99,,2013-01-30 15:33:00,
2013-01-30 08:43:00,21.0,19.0,-100.00,WNW,294,12.0,25.0,94,-99.99,,,-99.99,,2013-01-30 15:43:00,
2013-01-30 08:53:00,21.0,19.0,-100.00,WNW,294,12.0,25.0,94,-99.99,,,-99.99,,2013-01-30 15:53:00,
2013-01-30 09:00:00,22.0,21.0,-100.00,WNW,289,16.0,32.0,98,-99.99,,,-99.99,,2013-01-30 16:00:00,
2013-01-30 09:33:00,22.0,21.0,-100.00,WNW,289,16.0,32.0,98,-99.99,,,-99.99,,2013-01-30 16:33:00,
2013-01-30 09:42:00,22.0,21.0,-100.00,WNW,289,16.0,32.0,98,-99.99,,,-99.99,,2013-01-30 16:42:00,
2013-01-30 09:52:00,22.0,21.0,-100.00,WNW,289,16.0,32.0,98,-99.99,,,-99.99,,2013-01-30 16:52:00,
2013-01-30 10:00:00,22.0,22.0,-100.00,WNW,303,16.0,38.0,98,-99.99,,,-99.99,,2013-01-30 17:00:00,
2013-01-30 10:33:00,22.0,22.0,-100.00,WNW,303,16.0,38.0,98,-99.99,,,-99.99,,2013-01-30 17:33:00,
2013-01-30 10:43:00,22.0,22.0,-100.00,WNW,303,16.0,38.0,98,-99.99,,,-99.99,,2013-01-30 17:43:00,
2013-01-30 10:53:00,22.0,22.0,-100.00,WNW,303,16.0,38.0,98,-99.99,,,-99.99,,2013-01-30 17:53:00,
2013-01-30 11:00:00,23.0,23.0,-100.00,WNW,301,17.0,37.0,99,-99.99,,,-99.99,,2013-01-30 18:00:00,
2013-01-30 11:33:00,23.0,23.0,-100.00,WNW,301,17.0,37.0,99,-99.99,,,-99.99,,2013-01-30 18:33:00,
2013-01-30 11:43:00,23.0,23.0,-100.00,WNW,301,17.0,37.0,99,-99.99,,,-99.99,,2013-01-30 18:43:00,
2013-01-30 11:52:00,23.0,23.0,-100.00,WNW,301,17.0,37.0,99,-99.99,,,-99.99,,2013-01-30 18:52:00,
2013-01-30 12:00:00,24.0,23.0,-100.00,WNW,298,15.0,37.0,97,-99.99,,,-99.99,,2013-01-30 19:00:00,
2013-01-30 12:33:00,24.0,23.0,-100.00,WNW,298,15.0,37.0,97,-99.99,,,-99.99,,2013-01-30 19:33:00,
2013-01-30 12:43:00,24.0,23.0,-100.00,WNW,298,15.0,37.0,97,-99.99,,,-99.99,,2013-01-30 19:43:00,
2013-01-30 12:53:00,24.0,23.0,-100.00,WNW,298,15.0,37.0,97,-99.99,,,-99.99,,2013-01-30 19:53:00,
2013-01-30 15:00:00,23.0,23.0,-100.00,WNW,289,22.0,44.0,99,-99.99,,,-99.99,,2013-01-30 22:00:00,
2013-01-30 15:33:00,23.0,23.0,-100.00,WNW,289,22.0,44.0,99,-99.99,,,-99.99,,2013-01-30 22:33:00,
2013-01-30 15:42:00,23.0,23.0,-100.00,WNW,289,22.0,44.0,99,-99.99,,,-99.99,,2013-01-30 22:42:00,
2013-01-30 15:52:00,23.0,23.0,-100.00,WNW,289,22.0,44.0,99,-99.99,,,-99.99,,2013-01-30 22:52:00,